Time,TemperatureF,DewpointF,PressureIn,WindDirection,WindDirectionDegrees,WindSpeedMPH,WindSpeedGustMPH,Humidity,HourlyPrecipIn,Conditions,Clouds,dailyrainin,SoftwareType,DateUTC
2013-03-11 00:00:00,54.1,11.5,28.73,SSW,194,0.0,4.0,18,0.00,CLR,,0.00,WeatherDisplay:10.37,2013-03-11 04:00:00,
2013-03-11 00:05:00,53.8,11.2,28.73,South,187,2.0,4.0,18,0.00,CLR,,0.00,WeatherDisplay:10.37,2013-03-11 04:05:00,
2013-03-11 00:10:00,53.6,11.0,28.70,South,174,0.0,6.0,18,0.00,CLR,,0.00,WeatherDisplay:10.37,2013-03-11 04:10:00,
2013-03-11 00:15:00,53.6,11.0,28.70,SSE,155,2.0,6.0,18,0.00,CLR,,0.00,WeatherDisplay:10.37,2013-03-11 04:15:00,
2013-03-11 00:20:00,53.4,10.9,28.70,SSE,166,0.0,4.0,18,0.00,CLR,,0.00,WeatherDisplay:10.37,2013-03-11 04:20:00,
2013-03-11 00:25:00,53.4,10.9,28.70,SSW,195,0.0,3.0,18,0.00,CLR,,0.00,WeatherDisplay:10.37,2013-03-11 04:25:00,
2013-03-11 00:30:00,53.4,10.9,28.70,South,190,0.0,4.0,18,0.00,CLR,,0.00,WeatherDisplay:10.37,2013-03-11 04:30:00,
2013-03-11 00:35:00,53.8,11.2,28.70,South,183,0.0,6.0,18,0.00,CLR,,0.00,WeatherDisplay:10.37,2013-03-11 04:35:00,
2013-03-11 00:40:00,54.3,11.6,28.70,South,172,2.0,4.0,18,0.00,CLR,,0.00,WeatherDisplay:10.37,2013-03-11 04:40:00,
2013-03-11 00:45:00,54.7,11.9,28.70,South,177,2.0,6.0,18,0.00,CLR,,0.00,WeatherDisplay:10.37,2013-03-11 04:45:00,
2013-03-11 00:50:00,55.1,12.3,28.70,South,178,2.0,8.0,18,0.00,CLR,,0.00,WeatherDisplay:10.37,2013-03-11 04:50:00,
2013-03-11 00:55:00,55.2,12.4,28.70,South,177,3.0,6.0,18,0.00,CLR,,0.00,WeatherDisplay:10.37,2013-03-11 04:55:00,
2013-03-11 01:00:00,55.4,11.2,28.70,South,173,5.0,6.0,17,0.00,CLR,,0.00,WeatherDisplay:10.37,2013-03-11 05:00:00,
2013-03-11 01:05:00,55.5,11.3,28.70,South,174,3.0,6.0,17,0.00,CLR,,0.00,WeatherDisplay:10.37,2013-03-11 05:05:00,
2013-03-11 01:10:00,55.6,11.4,28.70,South,176,2.0,6.0,17,0.00,CLR,,0.00,WeatherDisplay:10.37,2013-03-11 05:10:00,
2013-03-11 01:15:00,55.6,11.4,28.70,South,173,5.0,6.0,17,0.00,CLR,,0.00,WeatherDisplay:10.37,2013-03-11 05:15:00,
2013-03-11 01:20:00,55.8,11.5,28.70,South,175,5.0,13.0,17,0.00,CLR,,0.00,WeatherDisplay:10.37,2013-03-11 05:20:00,
2013-03-11 01:25:00,55.9,11.7,28.67,South,174,3.0,9.0,17,0.00,CLR,,0.00,WeatherDisplay:10.37,2013-03-11 05:25:00,
2013-03-11 01:30:00,56.1,11.8,28.67,South,179,6.0,10.0,17,0.00,CLR,,0.00,WeatherDisplay:10.37,2013-03-11 05:30:00,
2013-03-11 01:35:00,56.3,12.0,28.67,South,188,6.0,11.0,17,0.00,CLR,,0.00,WeatherDisplay:10.37,2013-03-11 05:35:00,
2013-03-11 01:40:00,56.4,12.0,28.67,South,176,6.0,9.0,17,0.00,CLR,,0.00,WeatherDisplay:10.37,2013-03-11 05:40:00,
2013-03-11 01:45:00,56.6,12.2,28.67,South,173,5.0,12.0,17,0.00,CLR,,0.00,WeatherDisplay:10.37,2013-03-11 05:45:00,
2013-03-11 01:50:00,56.7,12.3,28.67,South,177,5.0,10.0,17,0.00,CLR,,0.00,WeatherDisplay:10.37,2013-03-11 05:50:00,
2013-03-11 01:55:00,56.7,12.3,28.67,South,182,5.0,12.0,17,0.00,CLR,,0.00,WeatherDisplay:10.37,2013-03-11 05:55:00,
2013-03-11 02:00:00,56.8,12.4,28.67,South,180,6.0,13.0,17,0.00,CLR,,0.00,WeatherDisplay:10.37,2013-03-11 06:00:00,
2013-03-11 02:05:00,56.7,12.3,28.67,South,189,7.0,11.0,17,0.00,CLR,,0.00,WeatherDisplay:10.37,2013-03-11 06:05:00,
2013-03-11 02:10:00,56.7,12.3,28.67,South,189,7.0,13.0,17,0.00,CLR,,0.00,WeatherDisplay:10.37,2013-03-11 06:10:00,
2013-03-11 02:15:00,56.7,12.3,28.67,SSW,200,3.0,10.0,17,0.00,CLR,,0.00,WeatherDisplay:10.37,2013-03-11 06:15:00,
2013-03-11 02:20:00,56.5,12.1,28.67,SSW,195,3.0,9.0,17,0.00,CLR,,0.00,WeatherDisplay:10.37,2013-03-11 06:20:00,
2013-03-11 02:25:00,56.3,12.0,28.70,South,189,7.0,12.0,17,0.00,CLR,,0.00,WeatherDisplay:10.37,2013-03-11 06:25:00,
2013-03-11 02:30:00,56.3,12.0,28.70,SSW,199,7.0,15.0,17,0.00,CLR,,0.00,WeatherDisplay:10.37,2013-03-11 06:30:00,
2013-03-11 02:35:00,56.1,11.8,28.70,SSW,204,7.0,12.0,17,0.00,CLR,,0.00,WeatherDisplay:10.37,2013-03-11 06:35:00,
2013-03-11 02:40:00,55.9,11.7,28.67,SSW,198,6.0,10.0,17,0.00,CLR,,0.00,WeatherDisplay:10.37,2013-03-11 06:40:00,
2013-03-11 02:45:00,55.8,11.5,28.67,SSW,192,5.0,10.0,17,0.00,CLR,,0.00,WeatherDisplay:10.37,2013-03-11 06:45:00,
2013-03-11 02:50:00,55.4,11.3,28.67,South,185,3.0,6.0,17,0.00,CLR,,0.00,WeatherDisplay:10.37,2013-03-11 06:50:00,
2013-03-11 02:55:00,55.2,12.4,28.67,South,189,5.0,6.0,18,0.00,CLR,,0.00,WeatherDisplay:10.37,2013-03-11 06:55:00,
2013-03-11 03:00:00,55.0,12.2,28.67,SSW,195,3.0,8.0,18,0.00,CLR,,0.00,WeatherDisplay:10.37,2013-03-11 07:00:00,
2013-03-11 03:10:00,54.7,11.9,28.67,South,185,5.0,7.0,18,0.00,CLR,,0.00,WeatherDisplay:10.37,2013-03-11 07:10:00,
2013-03-11 03:15:00,54.5,11.8,28.67,South,184,2.0,7.0,18,0.00,CLR,,0.00,WeatherDisplay:10.37,2013-03-11 07:15:00,
2013-03-11 03:20:00,54.5,11.8,28.67,SSW,192,5.0,10.0,18,0.00,CLR,,0.00,WeatherDisplay:10.37,2013-03-11 07:20:00,
2013-03-11 03:25:00,54.3,11.6,28.67,South,189,5.0,9.0,18,0.00,CLR,,0.00,WeatherDisplay:10.37,2013-03-11 07:25:00,
2013-03-11 03:30:00,54.0,11.4,28.67,SSW,194,5.0,12.0,18,0.00,CLR,,0.00,WeatherDisplay:10.37,2013-03-11 07:30:00,
2013-03-11 03:35:00,53.8,11.2,28.67,SSW,198,3.0,8.0,18,0.00,CLR,,0.00,WeatherDisplay:10.37,2013-03-11 07:35:00,
2013-03-11 03:40:00,53.6,11.1,28.64,SSW,198,5.0,8.0,18,0.00,CLR,,0.00,WeatherDisplay:10.37,2013-03-11 07:40:00,
2013-03-11 03:45:00,53.6,11.0,28.64,SSW,200,6.0,9.0,18,0.00,CLR,,0.00,WeatherDisplay:10.37,2013-03-11 07:45:00,
2013-03-11 03:50:00,53.4,10.9,28.64,SSW,199,3.0,12.0,18,0.00,CLR,,0.00,WeatherDisplay:10.37,2013-03-11 07:50:00,
2013-03-11 03:55:00,53.4,10.9,28.67,SSW,198,3.0,12.0,18,0.00,CLR,,0.00,WeatherDisplay:10.37,2013-03-11 07:55:00,
2013-03-11 04:00:00,53.4,10.9,28.67,SSW,199,5.0,6.0,18,0.00,CLR,,0.00,WeatherDisplay:10.37,2013-03-11 08:00:00,
2013-03-11 04:05:00,53.2,10.8,28.67,South,189,3.0,6.0,18,0.00,CLR,,0.00,WeatherDisplay:10.37,2013-03-11 08:05:00,
2013-03-11 04:10:00,53.1,10.6,28.64,South,186,6.0,9.0,18,0.00,CLR,,0.00,WeatherDisplay:10.37,2013-03-11 08:10:00,
2013-03-11 04:15:00,53.1,10.6,28.64,South,183,2.0,8.0,18,0.00,CLR,,0.00,WeatherDisplay:10.37,2013-03-11 08:15:00,
2013-03-11 04:20:00,52.9,13.9,28.64,South,186,6.0,13.0,21,0.00,CLR,,0.00,WeatherDisplay:10.37,2013-03-11 08:20:00,
2013-03-11 04:25:00,52.9,13.9,28.64,South,185,5.0,8.0,21,0.00,CLR,,0.00,WeatherDisplay:10.37,2013-03-11 08:25:00,
2013-03-11 04:35:00,52.5,15.7,28.64,South,184,7.0,8.0,23,0.00,CLR,,0.00,WeatherDisplay:10.37,2013-03-11 08:35:00,
2013-03-11 04:40:00,52.2,18.3,28.64,South,190,5.0,11.0,26,0.00,CLR,,0.00,WeatherDisplay:10.37,2013-03-11 08:40:00,
2013-03-11 04:45:00,52.0,18.1,28.64,SSW,199,5.0,9.0,26,0.00,CLR,,0.00,WeatherDisplay:10.37,2013-03-11 08:45:00,
2013-03-11 04:50:00,51.9,18.0,28.64,SSW,201,3.0,6.0,26,0.00,CLR,,0.00,WeatherDisplay:10.37,2013-03-11 08:50:00,
2013-03-11 04:55:00,51.8,18.0,28.64,SSW,196,2.0,8.0,26,0.00,CLR,,0.00,WeatherDisplay:10.37,2013-03-11 08:55:00,
2013-03-11 05:00:00,51.6,18.7,28.64,SSW,195,5.0,8.0,27,0.00,CLR,,0.00,WeatherDisplay:10.37,2013-03-11 09:00:00,
2013-03-11 05:05:00,51.4,18.5,28.64,SSW,196,3.0,8.0,27,0.00,CLR,,0.00,WeatherDisplay:10.37,2013-03-11 09:05:00,
2013-03-11 05:10:00,51.3,18.4,28.64,South,183,3.0,7.0,27,0.00,CLR,,0.00,WeatherDisplay:10.37,2013-03-11 09:10:00,
2013-03-11 05:15:00,51.3,18.4,28.64,South,186,5.0,6.0,27,0.00,CLR,,0.00,WeatherDisplay:10.37,2013-03-11 09:15:00,
2013-03-11 05:20:00,51.3,18.4,28.64,SSW,192,3.0,9.0,27,0.00,CLR,,0.00,WeatherDisplay:10.37,2013-03-11 09:20:00,
2013-03-11 05:25:00,51.3,18.4,28.64,South,183,3.0,7.0,27,0.00,CLR,,0.00,WeatherDisplay:10.37,2013-03-11 09:25:00,
2013-03-11 05:30:00,51.3,18.4,28.64,South,187,3.0,6.0,27,0.00,CLR,,0.00,WeatherDisplay:10.37,2013-03-11 09:30:00,
2013-03-11 05:35:00,51.3,18.4,28.64,South,188,3.0,7.0,27,0.00,CLR,,0.00,WeatherDisplay:10.37,2013-03-11 09:35:00,
2013-03-11 05:40:00,51.1,19.1,28.64,South,186,5.0,11.0,28,0.00,CLR,,0.00,WeatherDisplay:10.37,2013-03-11 09:40:00,
2013-03-11 05:45:00,51.0,19.8,28.64,South,187,3.0,8.0,29,0.00,CLR,,0.00,WeatherDisplay:10.37,2013-03-11 09:45:00,
2013-03-11 05:50:00,50.7,19.6,28.64,South,183,2.0,8.0,29,0.00,CLR,,0.00,WeatherDisplay:10.37,2013-03-11 09:50:00,
2013-03-11 05:55:00,50.7,20.4,28.61,South,178,3.0,6.0,30,0.00,CLR,,0.00,WeatherDisplay:10.37,2013-03-11 09:55:00,
2013-03-11 06:00:00,50.5,20.2,28.61,South,182,1.0,8.0,30,0.00,CLR,,0.00,WeatherDisplay:10.37,2013-03-11 10:00:00,
2013-03-11 06:05:00,50.5,21.0,28.61,South,180,3.0,8.0,31,0.00,CLR,,0.00,WeatherDisplay:10.37,2013-03-11 10:05:00,
2013-03-11 06:15:00,50.4,21.6,28.64,South,188,1.0,5.0,32,0.00,CLR,,0.00,WeatherDisplay:10.37,2013-03-11 10:15:00,
2013-03-11 06:20:00,50.4,22.3,28.64,SSE,165,0.0,6.0,33,0.00,CLR,,0.00,WeatherDisplay:10.37,2013-03-11 10:20:00,
2013-03-11 06:25:00,50.5,22.5,28.64,South,172,0.0,6.0,33,0.00,CLR,,0.00,WeatherDisplay:10.37,2013-03-11 10:25:00,
2013-03-11 06:30:00,50.4,23.0,28.64,South,187,0.0,5.0,34,0.00,CLR,,0.00,WeatherDisplay:10.37,2013-03-11 10:30:00,
2013-03-11 06:35:00,50.4,23.0,28.64,South,179,1.0,6.0,34,0.00,CLR,,0.00,WeatherDisplay:10.37,2013-03-11 10:35:00,
2013-03-11 06:40:00,50.4,23.7,28.61,South,177,3.0,6.0,35,0.00,CLR,,0.00,WeatherDisplay:10.37,2013-03-11 10:40:00,
2013-03-11 06:45:00,50.5,23.9,28.61,SSW,192,1.0,5.0,35,0.00,CLR,,0.00,WeatherDisplay:10.37,2013-03-11 10:45:00,
2013-03-11 06:50:00,50.5,24.5,28.61,South,191,2.0,6.0,36,0.00,CLR,,0.00,WeatherDisplay:10.37,2013-03-11 10:50:00,
2013-03-11 06:55:00,50.5,24.5,28.61,South,190,0.0,6.0,36,0.00,CLR,,0.00,WeatherDisplay:10.37,2013-03-11 10:55:00,
2013-03-11 07:05:00,50.7,24.7,28.61,South,190,2.0,6.0,36,0.00,CLR,,0.00,WeatherDisplay:10.37,2013-03-11 11:05:00,
2013-03-11 07:10:00,50.7,24.7,28.64,South,184,3.0,6.0,36,0.00,CLR,,0.00,WeatherDisplay:10.37,2013-03-11 11:10:00,
2013-03-11 07:15:00,50.7,24.7,28.64,South,187,0.0,6.0,36,0.00,CLR,,0.00,WeatherDisplay:10.37,2013-03-11 11:15:00,
2013-03-11 07:20:00,50.7,25.4,28.64,SSW,208,0.0,6.0,37,0.00,CLR,,0.00,WeatherDisplay:10.37,2013-03-11 11:20:00,
2013-03-11 07:25:00,50.9,25.5,28.64,SSW,212,1.0,4.0,37,0.00,CLR,,0.00,WeatherDisplay:10.37,2013-03-11 11:25:00,
2013-03-11 07:30:00,50.9,25.5,28.64,SSW,208,2.0,6.0,37,0.00,CLR,,0.00,WeatherDisplay:10.37,2013-03-11 11:30:00,
2013-03-11 07:35:00,50.9,25.5,28.64,SW,216,2.0,6.0,37,0.00,CLR,,0.00,WeatherDisplay:10.37,2013-03-11 11:35:00,
2013-03-11 07:40:00,50.9,26.2,28.63,SW,231,2.0,11.0,38,0.00,CLR,,0.00,WeatherDisplay:10.37,2013-03-11 11:40:00,
2013-03-11 07:45:00,50.9,26.2,28.61,SW,235,2.0,6.0,38,0.00,CLR,,0.00,WeatherDisplay:10.37,2013-03-11 11:45:00,
2013-03-11 07:50:00,51.1,27.6,28.61,SW,231,3.0,8.0,40,0.00,CLR,,0.00,WeatherDisplay:10.37,2013-03-11 11:50:00,
2013-03-11 07:55:00,51.1,28.2,28.64,SW,230,3.0,6.0,41,0.00,CLR,,0.00,WeatherDisplay:10.37,2013-03-11 11:55:00,
2013-03-11 08:00:00,51.1,29.3,28.64,SW,231,6.0,8.0,43,0.00,CLR,,0.00,WeatherDisplay:10.37,2013-03-11 12:00:00,
2013-03-11 08:05:00,51.1,30.5,28.64,SW,231,6.0,8.0,45,0.04,RA,,0.04,WeatherDisplay:10.37,2013-03-11 12:05:00,
2013-03-11 08:10:00,51.3,31.2,28.61,SW,232,6.0,9.0,46,0.00,RA,,0.04,WeatherDisplay:10.37,2013-03-11 12:10:00,
2013-03-11 08:15:00,51.3,31.7,28.61,SW,231,3.0,6.0,47,0.00,CLR,,0.04,WeatherDisplay:10.37,2013-03-11 12:15:00,
2013-03-11 08:20:00,51.3,31.7,28.61,SW,229,3.0,8.0,47,0.00,CLR,,0.04,WeatherDisplay:10.37,2013-03-11 12:20:00,
2013-03-11 08:25:00,51.3,32.2,28.61,SW,228,0.0,6.0,48,0.00,CLR,,0.04,WeatherDisplay:10.37,2013-03-11 12:25:00,
2013-03-11 08:30:00,51.3,31.7,28.61,SW,234,0.0,6.0,47,0.00,CLR,,0.04,WeatherDisplay:10.37,2013-03-11 12:30:00,
2013-03-11 08:35:00,51.3,31.7,28.61,WSW,237,2.0,4.0,47,0.00,CLR,,0.04,WeatherDisplay:10.37,2013-03-11 12:35:00,
2013-03-11 08:40:00,51.3,32.2,28.64,WSW,237,3.0,6.0,48,0.00,CLR,,0.04,WeatherDisplay:10.37,2013-03-11 12:40:00,
2013-03-11 08:45:00,51.3,32.2,28.64,SW,224,2.0,6.0,48,0.00,CLR,,0.04,WeatherDisplay:10.37,2013-03-11 12:45:00,
2013-03-11 08:50:00,51.3,32.2,28.64,SW,223,2.0,6.0,48,0.00,CLR,,0.04,WeatherDisplay:10.37,2013-03-11 12:50:00,
2013-03-11 08:55:00,51.3,32.2,28.64,SW,229,0.0,5.0,48,0.00,CLR,,0.04,WeatherDisplay:10.37,2013-03-11 12:55:00,
2013-03-11 09:00:00,51.3,32.2,28.64,SW,220,0.0,6.0,48,0.00,CLR,,0.04,WeatherDisplay:10.37,2013-03-11 13:00:00,
2013-03-11 09:10:00,51.3,31.7,28.61,SW,236,0.0,4.0,47,0.00,CLR,,0.04,WeatherDisplay:10.37,2013-03-11 13:10:00,
2013-03-11 09:15:00,51.3,31.7,28.61,SW,232,0.0,4.0,47,0.00,CLR,,0.04,WeatherDisplay:10.37,2013-03-11 13:15:00,
2013-03-11 09:20:00,51.3,31.7,28.61,SW,223,0.0,3.0,47,0.00,CLR,,0.04,WeatherDisplay:10.37,2013-03-11 13:20:00,
2013-03-11 09:25:00,51.3,31.7,28.64,SW,223,0.0,6.0,47,0.00,CLR,,0.04,WeatherDisplay:10.37,2013-03-11 13:25:00,
2013-03-11 09:30:00,51.3,31.7,28.64,SW,226,0.0,6.0,47,0.00,CLR,,0.04,WeatherDisplay:10.37,2013-03-11 13:30:00,
2013-03-11 09:35:00,51.3,31.7,28.64,SW,230,3.0,6.0,47,0.00,CLR,,0.04,WeatherDisplay:10.37,2013-03-11 13:35:00,
2013-03-11 09:40:00,51.3,31.7,28.61,WSW,238,0.0,4.0,47,0.00,CLR,,0.04,WeatherDisplay:10.37,2013-03-11 13:40:00,
2013-03-11 09:45:00,51.3,31.7,28.61,SW,232,0.0,4.0,47,0.00,CLR,,0.04,WeatherDisplay:10.37,2013-03-11 13:45:00,
2013-03-11 09:50:00,51.1,31.5,28.61,SW,223,0.0,4.0,47,0.00,CLR,,0.04,WeatherDisplay:10.37,2013-03-11 13:50:00,
2013-03-11 09:55:00,51.3,31.7,28.61,SW,227,0.0,2.0,47,0.00,CLR,,0.04,WeatherDisplay:10.37,2013-03-11 13:55:00,
2013-03-11 10:00:00,51.3,31.7,28.61,SW,227,0.0,0.0,47,0.00,CLR,,0.04,WeatherDisplay:10.37,2013-03-11 14:00:00,
2013-03-11 10:05:00,51.3,31.7,28.61,SW,221,1.0,4.0,47,0.00,CLR,,0.04,WeatherDisplay:10.37,2013-03-11 14:05:00,
2013-03-11 10:10:00,51.4,31.9,28.61,SSW,208,0.0,3.0,47,0.00,CLR,,0.04,WeatherDisplay:10.37,2013-03-11 14:10:00,
2013-03-11 10:15:00,51.4,31.3,28.61,SW,222,0.0,3.0,46,0.00,CLR,,0.04,WeatherDisplay:10.37,2013-03-11 14:15:00,
2013-03-11 10:20:00,51.4,31.3,28.61,WSW,238,0.0,2.0,46,0.00,CLR,,0.04,WeatherDisplay:10.37,2013-03-11 14:20:00,
2013-03-11 10:25:00,51.3,31.2,28.58,WSW,238,0.0,4.0,46,0.00,CLR,,0.04,WeatherDisplay:10.37,2013-03-11 14:25:00,
2013-03-11 10:30:00,51.3,31.2,28.58,WSW,238,0.0,4.0,46,0.00,CLR,,0.04,WeatherDisplay:10.37,2013-03-11 14:30:00,
2013-03-11 10:35:00,51.1,31.0,28.58,WSW,238,0.0,3.0,46,0.00,CLR,,0.04,WeatherDisplay:10.37,2013-03-11 14:35:00,
2013-03-11 10:40:00,51.1,31.0,28.58,WSW,238,0.0,4.0,46,0.00,CLR,,0.04,WeatherDisplay:10.37,2013-03-11 14:40:00,
2013-03-11 10:45:00,51.3,31.7,28.58,WSW,239,2.0,8.0,47,0.00,CLR,,0.04,WeatherDisplay:10.37,2013-03-11 14:45:00,
2013-03-11 10:50:00,51.3,31.7,28.58,WSW,237,5.0,6.0,47,0.00,CLR,,0.04,WeatherDisplay:10.37,2013-03-11 14:50:00,
2013-03-11 10:55:00,51.3,32.2,28.58,SW,228,6.0,9.0,48,0.00,CLR,,0.04,WeatherDisplay:10.37,2013-03-11 14:55:00,
2013-03-11 11:00:00,51.4,32.4,28.58,SW,232,0.0,7.0,48,0.00,CLR,,0.04,WeatherDisplay:10.37,2013-03-11 15:00:00,
2013-03-11 11:05:00,51.6,32.6,28.58,SW,223,5.0,8.0,48,0.00,CLR,,0.04,WeatherDisplay:10.37,2013-03-11 15:05:00,
2013-03-11 11:10:00,51.8,32.2,28.56,SW,222,3.0,10.0,47,0.00,CLR,,0.04,WeatherDisplay:10.37,2013-03-11 15:10:00,
2013-03-11 11:15:00,52.0,32.4,28.56,SW,224,1.0,5.0,47,0.00,CLR,,0.04,WeatherDisplay:10.37,2013-03-11 15:15:00,
2013-03-11 11:20:00,52.0,31.8,28.56,SW,217,0.0,4.0,46,0.00,CLR,,0.04,WeatherDisplay:10.37,2013-03-11 15:20:00,
2013-03-11 11:25:00,51.8,31.1,28.56,SSW,213,2.0,4.0,45,0.00,CLR,,0.04,WeatherDisplay:10.37,2013-03-11 15:25:00,
2013-03-11 11:30:00,51.7,30.5,28.56,SSW,194,0.0,6.0,44,0.00,CLR,,0.04,WeatherDisplay:10.37,2013-03-11 15:30:00,
2013-03-11 11:40:00,51.4,28.5,28.56,SW,230,2.0,6.0,41,0.00,CLR,,0.04,WeatherDisplay:10.37,2013-03-11 15:40:00,
2013-03-11 11:45:00,51.4,27.9,28.56,SW,229,2.0,6.0,40,0.00,CLR,,0.04,WeatherDisplay:10.37,2013-03-11 15:45:00,
2013-03-11 11:50:00,51.4,27.9,28.56,SW,227,6.0,6.0,40,0.00,CLR,,0.04,WeatherDisplay:10.37,2013-03-11 15:50:00,
2013-03-11 11:55:00,51.6,28.0,28.56,SW,234,3.0,6.0,40,0.00,CLR,,0.04,WeatherDisplay:10.37,2013-03-11 15:55:00,
2013-03-11 12:00:00,51.6,28.7,28.56,SW,231,2.0,6.0,41,0.00,CLR,,0.04,WeatherDisplay:10.37,2013-03-11 16:00:00,
2013-03-11 12:05:00,51.6,29.3,28.56,SW,229,5.0,6.0,42,0.00,CLR,,0.04,WeatherDisplay:10.37,2013-03-11 16:05:00,
2013-03-11 12:10:00,51.6,29.3,28.56,SW,230,3.0,6.0,42,0.00,CLR,,0.04,WeatherDisplay:10.37,2013-03-11 16:10:00,
2013-03-11 12:15:00,51.6,29.3,28.56,SW,228,5.0,8.0,42,0.00,CLR,,0.04,WeatherDisplay:10.37,2013-03-11 16:15:00,
2013-03-11 12:20:00,51.6,28.7,28.56,SW,225,7.0,8.0,41,0.00,CLR,,0.04,WeatherDisplay:10.37,2013-03-11 16:20:00,
2013-03-11 12:30:00,51.6,27.4,28.56,SW,221,8.0,13.0,39,0.00,CLR,,0.04,WeatherDisplay:10.37,2013-03-11 16:30:00,
2013-03-11 12:35:00,51.4,26.6,28.56,SW,228,8.0,12.0,38,0.00,CLR,,0.04,WeatherDisplay:10.37,2013-03-11 16:35:00,
2013-03-11 12:40:00,51.4,26.0,28.53,SW,235,8.0,12.0,37,0.00,CLR,,0.04,WeatherDisplay:10.37,2013-03-11 16:40:00,
2013-03-11 12:45:00,50.9,25.5,28.53,WSW,248,9.0,13.0,37,0.00,CLR,,0.04,WeatherDisplay:10.37,2013-03-11 16:45:00,
2013-03-11 12:50:00,50.5,25.2,28.53,WSW,254,9.0,13.0,37,0.00,CLR,,0.04,WeatherDisplay:10.37,2013-03-11 16:50:00,
2013-03-11 12:55:00,50.6,25.9,28.56,WSW,250,9.0,11.0,38,0.00,CLR,,0.04,WeatherDisplay:10.37,2013-03-11 16:55:00,
2013-03-11 13:00:00,50.4,26.3,28.56,WSW,249,8.0,12.0,39,0.00,CLR,,0.04,WeatherDisplay:10.37,2013-03-11 17:00:00,
2013-03-11 13:05:00,50.0,25.4,28.56,WSW,247,8.0,12.0,38,0.00,CLR,,0.04,WeatherDisplay:10.37,2013-03-11 17:05:00,
2013-03-11 13:10:00,49.1,23.9,28.56,West,262,7.0,13.0,37,0.00,CLR,,0.04,WeatherDisplay:10.37,2013-03-11 17:10:00,
2013-03-11 13:15:00,48.7,24.2,28.56,West,261,8.0,12.0,38,0.00,CLR,,0.04,WeatherDisplay:10.37,2013-03-11 17:15:00,
2013-03-11 13:20:00,48.7,24.8,28.56,WSW,257,7.0,13.0,39,0.00,CLR,,0.04,WeatherDisplay:10.37,2013-03-11 17:20:00,
2013-03-11 13:25:00,48.6,25.3,28.56,West,261,7.0,11.0,40,0.00,CLR,,0.04,WeatherDisplay:10.37,2013-03-11 17:25:00,
2013-03-11 13:30:00,48.5,25.2,28.56,West,260,8.0,13.0,40,0.00,CLR,,0.04,WeatherDisplay:10.37,2013-03-11 17:30:00,
2013-03-11 13:35:00,48.2,23.8,28.56,WSW,253,10.0,13.0,38,0.00,CLR,,0.04,WeatherDisplay:10.37,2013-03-11 17:35:00,
2013-03-11 13:40:00,48.0,24.2,28.56,WSW,248,9.0,14.0,39,0.00,CLR,,0.04,WeatherDisplay:10.37,2013-03-11 17:40:00,
2013-03-11 13:45:00,48.0,24.2,28.56,WSW,248,8.0,13.0,39,0.00,CLR,,0.04,WeatherDisplay:10.37,2013-03-11 17:45:00,
2013-03-11 13:50:00,47.8,23.4,28.56,WSW,250,7.0,12.0,38,0.00,CLR,,0.04,WeatherDisplay:10.37,2013-03-11 17:50:00,
2013-03-11 13:55:00,47.7,23.3,28.56,WSW,249,9.0,15.0,38,0.00,CLR,,0.04,WeatherDisplay:10.37,2013-03-11 17:55:00,
2013-03-11 14:00:00,47.7,23.9,28.56,WSW,246,8.0,13.0,39,0.00,CLR,,0.04,WeatherDisplay:10.37,2013-03-11 18:00:00,
2013-03-11 14:05:00,47.8,24.0,28.56,WSW,246,8.0,12.0,39,0.00,CLR,,0.04,WeatherDisplay:10.37,2013-03-11 18:05:00,
2013-03-11 14:10:00,47.8,23.4,28.56,WSW,253,9.0,12.0,38,0.00,CLR,,0.04,WeatherDisplay:10.37,2013-03-11 18:10:00,
2013-03-11 14:15:00,47.5,22.5,28.56,WSW,250,8.0,15.0,37,0.00,CLR,,0.04,WeatherDisplay:10.37,2013-03-11 18:15:00,
2013-03-11 14:20:00,47.3,22.3,28.56,WSW,250,8.0,12.0,37,0.00,CLR,,0.04,WeatherDisplay:10.37,2013-03-11 18:20:00,
2013-03-11 14:25:00,47.3,22.3,28.56,WSW,248,8.0,12.0,37,0.00,CLR,,0.04,WeatherDisplay:10.37,2013-03-11 18:25:00,
2013-03-11 14:30:00,47.3,22.9,28.56,WSW,245,9.0,13.0,38,0.00,CLR,,0.04,WeatherDisplay:10.37,2013-03-11 18:30:00,
2013-03-11 14:35:00,46.2,19.4,28.56,WSW,258,8.0,14.0,34,0.00,CLR,,0.04,WeatherDisplay:10.37,2013-03-11 18:35:00,
2013-03-11 14:40:00,45.0,20.9,28.56,West,281,7.0,13.0,38,0.00,CLR,,0.04,WeatherDisplay:10.37,2013-03-11 18:40:00,
2013-03-11 14:45:00,44.2,20.8,28.56,WNW,284,8.0,13.0,39,0.00,CLR,,0.04,WeatherDisplay:10.37,2013-03-11 18:45:00,
2013-03-11 14:50:00,43.3,19.4,28.56,West,275,9.0,15.0,38,0.00,CLR,,0.04,WeatherDisplay:10.37,2013-03-11 18:50:00,
2013-03-11 14:55:00,43.0,19.7,28.58,West,271,9.0,13.0,39,0.00,CLR,,0.04,WeatherDisplay:10.37,2013-03-11 18:55:00,
2013-03-11 15:00:00,42.8,18.9,28.58,West,275,7.0,15.0,38,0.00,CLR,,0.04,WeatherDisplay:10.37,2013-03-11 19:00:00,
2013-03-11 15:10:00,43.0,17.2,28.56,West,261,6.0,11.0,35,0.00,CLR,,0.04,WeatherDisplay:10.37,2013-03-11 19:10:00,
2013-03-11 15:20:00,43.5,14.8,28.56,West,263,9.0,13.0,31,0.00,CLR,,0.04,WeatherDisplay:10.37,2013-03-11 19:20:00,
2013-03-11 15:25:00,43.6,14.2,28.58,WSW,257,10.0,16.0,30,0.00,CLR,,0.04,WeatherDisplay:10.37,2013-03-11 19:25:00,
2013-03-11 15:30:00,43.5,14.1,28.58,West,262,10.0,17.0,30,0.00,CLR,,0.04,WeatherDisplay:10.37,2013-03-11 19:30:00,
2013-03-11 15:35:00,43.3,13.2,28.58,WSW,253,10.0,17.0,29,0.00,CLR,,0.04,WeatherDisplay:10.37,2013-03-11 19:35:00,
2013-03-11 15:40:00,43.2,13.8,28.56,WSW,253,7.0,13.0,30,0.00,CLR,,0.04,WeatherDisplay:10.37,2013-03-11 19:40:00,
2013-03-11 15:45:00,43.3,13.9,28.56,WSW,254,7.0,15.0,30,0.00,CLR,,0.04,WeatherDisplay:10.37,2013-03-11 19:45:00,
2013-03-11 15:50:00,43.3,12.3,28.56,WSW,252,8.0,15.0,28,0.00,CLR,,0.04,WeatherDisplay:10.37,2013-03-11 19:50:00,
2013-03-11 15:55:00,43.5,11.7,28.58,WSW,250,13.0,17.0,27,0.00,CLR,,0.04,WeatherDisplay:10.37,2013-03-11 19:55:00,
2013-03-11 16:00:00,43.9,12.8,28.58,WSW,250,9.0,16.0,28,0.00,CLR,,0.04,WeatherDisplay:10.37,2013-03-11 20:00:00,
2013-03-11 16:05:00,43.5,10.0,28.58,WSW,251,13.0,20.0,25,0.00,CLR,,0.04,WeatherDisplay:10.37,2013-03-11 20:05:00,
2013-03-11 16:10:00,44.5,9.9,28.58,WSW,251,9.0,17.0,24,0.00,CLR,,0.04,WeatherDisplay:10.37,2013-03-11 20:10:00,
2013-03-11 16:15:00,44.6,8.0,28.58,WSW,249,9.0,15.0,22,0.00,CLR,,0.04,WeatherDisplay:10.37,2013-03-11 20:15:00,
2013-03-11 16:20:00,44.2,8.7,28.58,WSW,242,13.0,19.0,23,0.00,CLR,,0.04,WeatherDisplay:10.37,2013-03-11 20:20:00,
2013-03-11 16:25:00,44.3,6.7,28.58,WSW,240,12.0,19.0,21,0.00,CLR,,0.04,WeatherDisplay:10.37,2013-03-11 20:25:00,
2013-03-11 16:30:00,43.9,8.5,28.58,WSW,247,13.0,22.0,23,0.00,CLR,,0.04,WeatherDisplay:10.37,2013-03-11 20:30:00,
2013-03-11 16:40:00,43.2,7.8,28.58,WSW,247,16.0,23.0,23,0.00,CLR,,0.04,WeatherDisplay:10.37,2013-03-11 20:40:00,
2013-03-11 16:45:00,42.9,7.6,28.58,WSW,241,16.0,21.0,23,0.00,CLR,,0.04,WeatherDisplay:10.37,2013-03-11 20:45:00,
2013-03-11 16:50:00,42.8,7.5,28.58,WSW,243,13.0,15.0,23,0.00,CLR,,0.04,WeatherDisplay:10.37,2013-03-11 20:50:00,
2013-03-11 16:55:00,42.9,9.5,28.61,WSW,245,8.0,15.0,25,0.00,CLR,,0.04,WeatherDisplay:10.37,2013-03-11 20:55:00,
2013-03-11 17:00:00,42.2,7.0,28.61,WSW,252,14.0,17.0,23,0.00,CLR,,0.04,WeatherDisplay:10.37,2013-03-11 21:00:00,
2013-03-11 17:05:00,41.7,6.6,28.61,WSW,250,16.0,21.0,23,0.00,CLR,,0.04,WeatherDisplay:10.37,2013-03-11 21:05:00,
2013-03-11 17:10:00,41.6,6.5,28.61,WSW,251,12.0,18.0,23,0.00,CLR,,0.04,WeatherDisplay:10.37,2013-03-11 21:10:00,
2013-03-11 17:15:00,41.9,9.5,28.61,WSW,247,13.0,17.0,26,0.00,CLR,,0.04,WeatherDisplay:10.37,2013-03-11 21:15:00,
2013-03-11 17:20:00,41.8,6.7,28.61,WSW,248,14.0,21.0,23,0.00,CLR,,0.04,WeatherDisplay:10.37,2013-03-11 21:20:00,
2013-03-11 17:25:00,41.3,6.2,28.61,WSW,245,14.0,20.0,23,0.00,CLR,,0.04,WeatherDisplay:10.37,2013-03-11 21:25:00,
2013-03-11 17:30:00,40.7,6.6,28.61,WSW,246,9.0,16.0,24,0.00,CLR,,0.04,WeatherDisplay:10.37,2013-03-11 21:30:00,
2013-03-11 17:35:00,40.5,8.2,28.61,WSW,247,8.0,15.0,26,0.00,CLR,,0.04,WeatherDisplay:10.37,2013-03-11 21:35:00,
2013-03-11 17:45:00,39.7,9.2,28.64,WSW,247,13.0,20.0,28,0.00,CLR,,0.04,WeatherDisplay:10.37,2013-03-11 21:45:00,
2013-03-11 17:50:00,38.8,10.0,28.64,WSW,255,10.0,20.0,30,0.00,CLR,,0.04,WeatherDisplay:10.37,2013-03-11 21:50:00,
2013-03-11 17:55:00,38.2,10.2,28.64,WSW,254,10.0,15.0,31,0.00,CLR,,0.04,WeatherDisplay:10.37,2013-03-11 21:55:00,
2013-03-11 18:00:00,38.0,10.7,28.64,WSW,255,9.0,13.0,32,0.00,CLR,,0.04,WeatherDisplay:10.37,2013-03-11 22:00:00,
2013-03-11 18:10:00,37.7,10.5,28.64,WSW,252,8.0,13.0,32,0.00,CLR,,0.04,WeatherDisplay:10.37,2013-03-11 22:10:00,
2013-03-11 18:15:00,37.8,9.8,28.64,WSW,255,13.0,16.0,31,0.00,CLR,,0.04,WeatherDisplay:10.37,2013-03-11 22:15:00,
2013-03-11 18:20:00,37.8,9.8,28.64,WSW,251,12.0,17.0,31,0.00,CLR,,0.04,WeatherDisplay:10.37,2013-03-11 22:20:00,
2013-03-11 18:25:00,37.9,9.2,28.64,WSW,249,13.0,17.0,30,0.00,CLR,,0.04,WeatherDisplay:10.37,2013-03-11 22:25:00,
2013-03-11 18:30:00,37.9,8.5,28.64,WSW,246,8.0,15.0,29,0.00,CLR,,0.04,WeatherDisplay:10.37,2013-03-11 22:30:00,
2013-03-11 18:35:00,37.9,8.5,28.64,WSW,242,9.0,19.0,29,0.00,CLR,,0.04,WeatherDisplay:10.37,2013-03-11 22:35:00,
2013-03-11 18:40:00,37.8,5.9,28.64,WSW,249,13.0,20.0,26,0.00,CLR,,0.04,WeatherDisplay:10.37,2013-03-11 22:40:00,
2013-03-11 18:45:00,37.6,7.4,28.64,WSW,250,10.0,17.0,28,0.00,CLR,,0.04,WeatherDisplay:10.37,2013-03-11 22:45:00,
2013-03-11 18:50:00,37.6,8.1,28.64,WSW,249,13.0,17.0,29,0.00,CLR,,0.04,WeatherDisplay:10.37,2013-03-11 22:50:00,
2013-03-11 18:55:00,37.4,8.0,28.64,WSW,250,9.0,18.0,29,0.00,CLR,,0.04,WeatherDisplay:10.37,2013-03-11 22:55:00,
2013-03-11 19:00:00,37.4,8.7,28.64,WSW,247,9.0,13.0,30,0.00,CLR,,0.04,WeatherDisplay:10.37,2013-03-11 23:00:00,
2013-03-11 19:05:00,37.2,9.3,28.64,WSW,251,8.0,14.0,31,0.00,CLR,,0.04,WeatherDisplay:10.37,2013-03-11 23:05:00,
2013-03-11 19:10:00,36.9,9.7,28.67,WSW,246,10.0,15.0,32,0.00,CLR,,0.04,WeatherDisplay:10.37,2013-03-11 23:10:00,
2013-03-11 19:15:00,36.7,10.2,28.67,WSW,248,14.0,16.0,33,0.00,CLR,,0.04,WeatherDisplay:10.37,2013-03-11 23:15:00,
2013-03-11 19:20:00,36.5,9.4,28.67,West,263,8.0,15.0,32,0.00,CLR,,0.04,WeatherDisplay:10.37,2013-03-11 23:20:00,
2013-03-11 19:25:00,36.5,10.1,28.67,West,264,9.0,15.0,33,0.00,CLR,,0.04,WeatherDisplay:10.37,2013-03-11 23:25:00,
2013-03-11 19:30:00,36.3,9.2,28.67,WSW,245,13.0,17.0,32,0.00,CLR,,0.04,WeatherDisplay:10.37,2013-03-11 23:30:00,
2013-03-11 19:35:00,36.3,9.2,28.67,WSW,247,9.0,16.0,32,0.00,CLR,,0.04,WeatherDisplay:10.37,2013-03-11 23:35:00,
2013-03-11 19:40:00,36.2,9.8,28.67,WSW,246,8.0,13.0,33,0.00,CLR,,0.04,WeatherDisplay:10.37,2013-03-11 23:40:00,
2013-03-11 19:45:00,36.1,9.8,28.67,WSW,248,12.0,17.0,33,0.00,CLR,,0.04,WeatherDisplay:10.37,2013-03-11 23:45:00,
2013-03-11 19:50:00,36.1,9.8,28.67,WSW,248,12.0,15.0,33,0.00,CLR,,0.04,WeatherDisplay:10.37,2013-03-11 23:50:00,
2013-03-11 19:55:00,36.0,9.0,28.70,WSW,247,12.0,17.0,32,0.00,CLR,,0.04,WeatherDisplay:10.37,2013-03-11 23:55:00,
2013-03-11 20:00:00,36.0,8.2,28.70,WSW,253,9.0,18.0,31,0.00,CLR,,0.04,WeatherDisplay:10.37,2013-03-12 00:00:00,
2013-03-11 20:05:00,36.0,8.2,28.70,WSW,254,12.0,20.0,31,0.00,CLR,,0.04,WeatherDisplay:10.37,2013-03-12 00:05:00,
2013-03-11 20:10:00,36.0,7.5,28.70,WSW,257,8.0,16.0,30,0.00,CLR,,0.04,WeatherDisplay:10.37,2013-03-12 00:10:00,
2013-03-11 20:15:00,36.0,8.2,28.70,WSW,251,10.0,17.0,31,0.00,CLR,,0.04,WeatherDisplay:10.37,2013-03-12 00:15:00,
2013-03-11 20:20:00,36.0,8.9,28.70,WSW,250,9.0,17.0,32,0.00,CLR,,0.04,WeatherDisplay:10.37,2013-03-12 00:20:00,
2013-03-11 20:25:00,35.8,8.8,28.70,WSW,246,9.0,18.0,32,0.00,CLR,,0.04,WeatherDisplay:10.37,2013-03-12 00:25:00,
2013-03-11 20:30:00,35.8,8.8,28.70,WSW,246,9.0,16.0,32,0.00,CLR,,0.04,WeatherDisplay:10.37,2013-03-12 00:30:00,
2013-03-11 20:35:00,35.8,8.8,28.70,WSW,246,9.0,17.0,32,0.00,CLR,,0.04,WeatherDisplay:10.37,2013-03-12 00:35:00,
2013-03-11 20:40:00,35.6,8.6,28.70,WSW,248,10.0,15.0,32,0.00,CLR,,0.04,WeatherDisplay:10.37,2013-03-12 00:40:00,
2013-03-11 20:45:00,35.6,8.6,28.70,WSW,247,13.0,15.0,32,0.00,CLR,,0.04,WeatherDisplay:10.37,2013-03-12 00:45:00,
2013-03-11 20:50:00,35.5,7.8,28.70,WSW,247,14.0,20.0,31,0.00,CLR,,0.04,WeatherDisplay:10.37,2013-03-12 00:50:00,
2013-03-11 20:55:00,35.5,7.8,28.73,WSW,251,9.0,16.0,31,0.00,CLR,,0.04,WeatherDisplay:10.37,2013-03-12 00:55:00,
2013-03-11 21:00:00,35.4,8.4,28.73,WSW,247,10.0,17.0,32,0.00,CLR,,0.04,WeatherDisplay:10.37,2013-03-12 01:00:00,
2013-03-11 21:05:00,35.4,8.4,28.73,WSW,251,12.0,22.0,32,0.00,CLR,,0.04,WeatherDisplay:10.37,2013-03-12 01:05:00,
2013-03-11 21:10:00,35.4,8.4,28.70,WSW,251,10.0,15.0,32,0.00,CLR,,0.04,WeatherDisplay:10.37,2013-03-12 01:10:00,
2013-03-11 21:15:00,35.4,8.4,28.70,WSW,250,12.0,15.0,32,0.00,CLR,,0.04,WeatherDisplay:10.37,2013-03-12 01:15:00,
2013-03-11 21:20:00,35.4,8.4,28.70,WSW,250,13.0,15.0,32,0.00,CLR,,0.04,WeatherDisplay:10.37,2013-03-12 01:20:00,
2013-03-11 21:25:00,35.2,7.6,28.73,WSW,248,13.0,15.0,31,0.00,CLR,,0.04,WeatherDisplay:10.37,2013-03-12 01:25:00,
2013-03-11 21:30:00,35.2,8.3,28.73,WSW,247,8.0,15.0,32,0.00,CLR,,0.04,WeatherDisplay:10.37,2013-03-12 01:30:00,
2013-03-11 21:35:00,35.2,8.3,28.73,WSW,249,10.0,13.0,32,0.00,CLR,,0.04,WeatherDisplay:10.37,2013-03-12 01:35:00,
2013-03-11 21:40:00,35.1,7.4,28.73,WSW,246,12.0,13.0,31,0.00,CLR,,0.04,WeatherDisplay:10.37,2013-03-12 01:40:00,
2013-03-11 21:50:00,35.1,8.1,28.73,WSW,245,12.0,17.0,32,0.00,CLR,,0.04,WeatherDisplay:10.37,2013-03-12 01:50:00,
2013-03-11 21:55:00,35.1,8.1,28.73,WSW,243,9.0,13.0,32,0.00,CLR,,0.04,WeatherDisplay:10.37,2013-03-12 01:55:00,
2013-03-11 22:00:00,35.1,8.1,28.73,WSW,245,10.0,14.0,32,0.00,CLR,,0.04,WeatherDisplay:10.37,2013-03-12 02:00:00,
2013-03-11 22:05:00,35.0,8.1,28.73,WSW,243,9.0,13.0,32,0.00,CLR,,0.04,WeatherDisplay:10.37,2013-03-12 02:05:00,
2013-03-11 22:10:00,35.1,8.1,28.73,WSW,247,13.0,17.0,32,0.00,CLR,,0.04,WeatherDisplay:10.37,2013-03-12 02:10:00,
2013-03-11 22:15:00,35.1,8.1,28.73,WSW,248,12.0,13.0,32,0.00,CLR,,0.04,WeatherDisplay:10.37,2013-03-12 02:15:00,
2013-03-11 22:20:00,35.1,7.4,28.73,WSW,243,10.0,15.0,31,0.00,CLR,,0.04,WeatherDisplay:10.37,2013-03-12 02:20:00,
2013-03-11 22:25:00,35.1,7.4,28.73,WSW,246,9.0,15.0,31,0.00,CLR,,0.04,WeatherDisplay:10.37,2013-03-12 02:25:00,
2013-03-11 22:30:00,35.1,7.4,28.73,WSW,246,10.0,17.0,31,0.00,CLR,,0.04,WeatherDisplay:10.37,2013-03-12 02:30:00,
2013-03-11 22:35:00,34.9,7.3,28.73,WSW,242,9.0,15.0,31,0.00,CLR,,0.04,WeatherDisplay:10.37,2013-03-12 02:35:00,
2013-03-11 22:40:00,35.1,7.4,28.76,WSW,246,9.0,14.0,31,0.00,CLR,,0.04,WeatherDisplay:10.37,2013-03-12 02:40:00,
2013-03-11 22:45:00,35.1,8.1,28.76,WSW,252,7.0,12.0,32,0.00,CLR,,0.04,WeatherDisplay:10.37,2013-03-12 02:45:00,
2013-03-11 22:50:00,34.9,8.6,28.76,WSW,249,8.0,12.0,33,0.00,CLR,,0.04,WeatherDisplay:10.37,2013-03-12 02:50:00,
2013-03-11 22:55:00,34.6,9.8,28.76,WSW,254,10.0,15.0,35,0.00,CLR,,0.04,WeatherDisplay:10.37,2013-03-12 02:55:00,
2013-03-11 23:00:00,34.5,10.3,28.76,WSW,255,12.0,15.0,36,0.00,CLR,,0.04,WeatherDisplay:10.37,2013-03-12 03:00:00,
2013-03-11 23:05:00,34.5,10.3,28.76,WSW,250,8.0,13.0,36,0.00,CLR,,0.04,WeatherDisplay:10.37,2013-03-12 03:05:00,
2013-03-11 23:10:00,34.3,10.7,28.76,WSW,244,9.0,13.0,37,0.00,CLR,,0.04,WeatherDisplay:10.37,2013-03-12 03:10:00,
2013-03-11 23:15:00,34.2,12.3,28.76,WSW,250,9.0,13.0,40,0.00,CLR,,0.04,WeatherDisplay:10.37,2013-03-12 03:15:00,
2013-03-11 23:20:00,34.2,12.3,28.76,WSW,246,9.0,13.0,40,0.00,CLR,,0.04,WeatherDisplay:10.37,2013-03-12 03:20:00,
2013-03-11 23:25:00,34.0,12.2,28.76,WSW,243,12.0,16.0,40,0.00,CLR,,0.04,WeatherDisplay:10.37,2013-03-12 03:25:00,
2013-03-11 23:30:00,34.0,12.2,28.76,WSW,243,9.0,13.0,40,0.00,CLR,,0.04,WeatherDisplay:10.37,2013-03-12 03:30:00,
2013-03-11 23:35:00,34.0,12.7,28.76,WSW,249,10.0,14.0,41,0.00,CLR,,0.04,WeatherDisplay:10.37,2013-03-12 03:35:00,
2013-03-11 23:40:00,34.0,12.7,28.76,WSW,249,9.0,13.0,41,0.00,CLR,,0.04,WeatherDisplay:10.37,2013-03-12 03:40:00,
2013-03-11 23:45:00,34.1,10.5,28.76,WSW,249,12.0,18.0,37,0.00,CLR,,0.04,WeatherDisplay:10.37,2013-03-12 03:45:00,
2013-03-11 23:50:00,34.3,9.5,28.76,WSW,249,10.0,17.0,35,0.00,CLR,,0.04,WeatherDisplay:10.37,2013-03-12 03:50:00,
2013-03-11 23:55:00,34.3,8.2,28.76,WSW,252,10.0,15.0,33,0.00,CLR,,0.04,WeatherDisplay:10.37,2013-03-12 03:55:00,